This demonstration page uses our WeatherBlox Daily Observations layout. Learn more.

Left ArrowRight Arrow

39.29038, -76.61219

Hourly Observations for February 14, 2019

Temp ( °F °C ) Dew Point ( °F °C ) Humidity (%) Winds ( mph kmh ) Pressure ( in mb ) Visibility ( mi km ) Precip ( " mm )
12:54 am 00:54 undefined 36 2.2 21 -6.1 55 55 undefined N/A 29.95 1014 N/A 0.00 0.00
1:54 am 01:54 undefined 36 2.2 21 -6.1 55 55 undefined N/A 29.98 1015 N/A 0.00 0.00
2:54 am 02:54 undefined 36 2.2 20 -6.7 52 52 undefined N/A 30.02 1017 N/A 0.00 0.00
3:54 am 03:54 undefined 34 1.1 20 -6.7 56 56 undefined N/A 30.04 1017 N/A 0.00 0.00
4:54 am 04:54 undefined 33 0.6 20 -6.7 58 58 undefined N/A 30.06 1018 N/A 0.00 0.00
5:54 am 05:54 undefined 33 0.6 22 -5.6 64 64 undefined N/A 30.07 1018 N/A 0.00 0.00
6:54 am 06:54 undefined 34 1.1 21 -6.1 59 59 undefined N/A 30.09 1019 N/A 0.00 0.00
7:54 am 07:54 undefined 37 2.8 21 -6.1 52 52 undefined N/A 30.10 1019 N/A 0.00 0.00
8:54 am 08:54 undefined 41 5 22 -5.6 47 47 undefined N/A 30.11 1020 N/A 0.00 0.00
9:54 am 09:54 undefined 45 7.2 21 -6.1 39 39 undefined N/A 30.12 1020 N/A 0.00 0.00
10:54 am 10:54 undefined 47 8.3 21 -6.1 36 36 undefined N/A 30.12 1020 N/A 0.00 0.00
11:54 am 11:54 undefined 47 8.3 20 -6.7 34 34 undefined N/A 30.09 1019 N/A 0.00 0.00
12:54 pm 12:54 undefined 49 9.4 20 -6.7 32 32 undefined N/A 30.09 1019 N/A 0.00 0.00
1:54 pm 13:54 undefined 51 10.6 18 -7.8 27 27 undefined N/A 30.07 1018 N/A 0.00 0.00
2:54 pm 14:54 undefined 52 11.1 18 -7.8 26 26 undefined N/A 30.06 1018 N/A 0.00 0.00
3:54 pm 15:54 undefined 52 11.1 19 -7.2 27 27 undefined N/A 30.03 1017 N/A 0.00 0.00
4:54 pm 16:54 undefined 48 8.9 25 -3.9 41 41 undefined N/A 30.01 1016 N/A 0.00 0.00
5:54 pm 17:54 undefined 47 8.3 24 -4.4 41 41 undefined N/A 30.00 1016 N/A 0.00 0.00
6:54 pm 18:54 undefined 47 8.3 26 -3.3 44 44 undefined N/A 30.01 1016 N/A 0.00 0.00
7:54 pm 19:54 undefined 46 7.8 27 -2.8 47 47 undefined N/A 30.00 1016 N/A 0.00 0.00
8:54 pm 20:54 undefined 45 7.2 26 -3.3 48 48 undefined N/A 29.98 1015 N/A 0.00 0.00
9:54 pm 21:54 undefined 44 6.7 27 -2.8 51 51 undefined N/A 29.97 1015 N/A 0.00 0.00
10:54 pm 22:54 undefined 44 6.7 28 -2.2 53 53 undefined N/A 29.95 1014 N/A 0.00 0.00
11:54 pm 23:54 undefined 45 7.2 29 -1.7 54 54 undefined N/A 29.91 1013 N/A 0.00 0.00

Powered by AerisWeather